NOAA NWS Hourly Roundups by Site

Regional Weather Roundup for San Diego, CA

To Select Another Site Choose from List

Select Site:  

000
ASUS46 KSGX 062211
RWRSGX

SAN DIEGO HOURLY WEATHER ROUNDUP
NATIONAL WEATHER SERVICE SAN DIEGO CA
300 PM PDT WED JUL 06 2022

NOTE: "FAIR" INDICATES FEW OR NO CLOUDS BELOW 12,000 FEET WITH NO
SIGNIFICANT WEATHER AND/OR OBSTRUCTIONS TO VISIBILITY.

CAZ042-043-060-061-PZZ750-775-062300-

GREATER SAN DIEGO AREA

CITY           SKY/WX    TMP DP  RH WIND       PRES   REMARKS
SAN DIEGO AP   MOSUNNY   71  61  70 W13       29.96F
BROWN FIELD    SUNNY     76  61  59 W9G17     29.94F
MIRAMAR MCAS   MOSUNNY   74  61  63 NW12      29.95F
MONTGOMERY FLD SUNNY     77  61  57 W12       29.95F
GILLESPIE FLD  SUNNY     81  61  50 W13G20    29.93F
LEMON GROVE      N/A     76  65  69 SW10      29.91S

$$

NORTH SAN DIEGO COUNTY

CITY           SKY/WX    TMP DP  RH WIND       PRES   REMARKS
CAMP PENDLETON SUNNY     75  63  66 SW12G23   29.93F
OCEANSIDE AP   PTSUNNY   73  62  68 SW12G20   29.94F
OCEANSIDE HBR    N/A     70  64  80 CALM      30.01F
VISTA            N/A     74  65  73 W12       29.92S
CARLSBAD       CLOUDY    69  61  75 W10       29.95S
ENCINITAS        N/A     71  65  81 W3          N/A
LA JOLLA SCRIP   N/A     68  61  79 CALM      29.95F
FALLBROOK      FAIR      79  61  53 SW8G18    29.95S
ESCONDIDO        N/A     80  64  56 W8        29.92S
SAN MARCOS       N/A     76  65  69 NW2       29.96F
RANCHO BERNARD   N/A     77  63  62 W3        29.92S
POWAY            N/A     80  65  59 SW3       29.94F

$$

EAST SAN DIEGO COUNTY

CITY           SKY/WX    TMP DP  RH WIND       PRES   REMARKS
RAMONA         SUNNY     84  60  44 W13G20    29.95F
SANTEE           N/A     82  64  54 CALM      29.88F
EL CAJON         N/A     82  64  54 N7        29.79F
ALPINE           N/A     83  63  50 W8        30.09S
DESCANSO N       N/A     83  58  42 W12       29.91F

$$

ORANGE COUNTY AND THE LOS ANGELES BASIN

CITY           SKY/WX    TMP DP  RH WIND       PRES   REMARKS
JOHN WAYNE AP  MOSUNNY   76  60  57 SW8       29.94F
LAGUNA BEACH     N/A     76  66  69 NE1       29.94F
LAKE FOREST FR   N/A     79  59  49 NW7       29.81F
SANTA ANA        N/A     79  65  61 S9        29.92F
HUNTINGTON BCH   N/A     74  65  73 SW6       29.93F
LOS ALAMITOS   SUNNY     76  62  61 SW12      29.91F
FULLERTON      SUNNY     80  60  50 SW8       29.92F
LONG BEACH     SUNNY     75  60  59 S8        29.93F
L.A. AP        MOSUNNY   72  60  66 W15       29.95F
L.A. DOWNTOWN  SUNNY     76  60  57 W6        29.93F

$$

THE INLAND EMPIRE

CITY           SKY/WX    TMP DP  RH WIND       PRES   REMARKS
CORONA         SUNNY     85  62  46 MISG      29.92F
UPLAND AP      FAIR      82  55  39 W13G21    29.95S
CHINO          SUNNY     90  57  32 W16       29.92F
ONTARIO        MOSUNNY   86  57  37 W10G20    29.92F
SAN BERNARDINO SUNNY     88  48  25 NW5       29.92F
RIVERSIDE AP   SUNNY     88  57  34 W14G21    29.91F
MORENO VALLEY    N/A     90  58  34 W3        29.87S
MARCH ARB      SUNNY     88  56  34 W10       29.93F
HORSETHIEF CYN   N/A     86  56  35 NW3       29.88F
PERRIS           N/A     88  54  31 NW7       29.93F
LAKE ELSINORE    N/A     91  59  33 CALM      29.80F
HEMET AP       FAIR      91  56  30 S9        29.92F
FRENCH VALLEY  FAIR      84  59  42 SW10G17   29.93F
TEMECULA         N/A     85  64  49 SW6       29.87F

$$

SAN BERNARDINO AND RIVERSIDE COUNTY MOUNTAINS

CITY           SKY/WX    TMP DP  RH WIND       PRES   REMARKS
BIG BEAR AP    SUNNY     73  36  25 W12       30.22S
BIG BEAR LAKE    N/A     75  41  29 CALM      29.85F
WRIGHTWOOD       N/A     76  42  29 CALM      29.74S
ANGELUS OAKS     N/A     73  49  42 CALM      29.80F
IDYLLWILD        N/A     81  48  31 S3        29.80S
TORO PEAK        N/A     58  39  49 SW7         N/A

$$

SOUTHERN DESERT INCLUDING THE COACHELLA VALLEY

CITY           SKY/WX    TMP DP  RH WIND       PRES   REMARKS
PALM SPRINGS   SUNNY    101  49  17 VRB7      29.81F HX  98
THOUSAND PALMS   N/A    100  53  20 E5        29.75F HX  98
INDIO            N/A     99  54  22 W7        29.77F HX  97
THERMAL        SUNNY    100  52  19 SE12      29.76F HX  97
BORREGO AP     FAIR     100  46  16 E8        29.79F HX  96
OCOTILLO WELLS   N/A    104  53  18 S2        29.75F HX 101
CANEBRAKE        N/A     96  49  20 E7        29.71F
BLYTHE         MOSUNNY  100  47  16 VRB6G17   29.80F HX  96
IMPERIAL AP    SUNNY    101  52  19 SE8       29.76F HX  98
EL CENTRO NAS  SUNNY    103  51  17 SE9       29.78F HX 100
YUMA AZ        SUNNY    101  53  20 S9        29.78F HX  99

$$

UPPER DESERT

CITY           SKY/WX    TMP DP  RH WIND       PRES   REMARKS
VICTORVILLE AP SUNNY     91  36  14 S15G21    29.97S
HESPERIA         N/A     82  46  28 SW24      29.66S
APPLE VALLEY     N/A     88  50  26 N14       29.84F
PALMDALE       SUNNY     89  38  16 SW25G32   29.94S
LANCASTER      SUNNY     89  45  21 SW21G30   29.93F
EDWARDS AFB    MOSUNNY   91  35  14 W17G26    29.90F
DAGGETT        SUNNY     97  42  15 N8G21     29.86F
29 PALMS N     SUNNY     99  40  13 E16       29.93F
NEEDLES        SUNNY    102  23   6 S12G24    29.83F HX  95

$$

REGIONAL REPORTS

CITY           SKY/WX    TMP DP  RH WIND       PRES   REMARKS
SANTA BARBARA  SUNNY     71  62  73 S8        29.96S
SANDBERG       SUNNY     77  47  34 MISG      30.08S
LAS VEGAS NV   MOSUNNY   99  21   6 SE12G25   29.86F
PHOENIX AZ     MOSUNNY  104  34   9 SE13G20   29.83F HX  97
TIJUANA        SUNNY     75  61  60 W17       29.97F
ENSENADA NW      N/A     69  32  25 W17       29.90F

$$

OFFSHORE ISLANDS

CITY           SKY/WX    TMP DP  RH WIND       PRES   REMARKS
CATALINA ARPT  SUNNY     67  58  72 SW12      29.99F
SAN CLEMENTE I CLOUDY    65  59  81 W15       30.00F
SAN NICOLAS IS MOSUNNY   70  55  59 NW22G29   29.98F

$$

MARINE AND OFFSHORE BUOY REPORTS

STATION/POSITION SKY/WX   TEMP    WIND        PRES    VSBY  SWELL
                          AIR SEA DIR/SP/G                  HT/PER/DIR
                          (F)     (DEG/KT/KT) (MB)    (MI)  (FT/S/D)
TANNER BANKS               61 62  320/ 12/ 16 1015.6
S CLEMENTE BASIN              67              1014.1F
SAN NICOLAS IS.               61                N/A           2/290/11
W. S. BARBARA CH           59 57  300/ 14/ 16 1015.1
M. S. BARBARA CH           63 62  280/  6/  8 1015.4
S. MONICA BASIN            64 68  190/  4/  8 1015.1
S PEDRO CHANNEL               67                N/A
OCEANSIDE OFFSHR              71                N/A           2/200/17
TORREY PINES OTR              71                N/A           2/210/11
SAN DIEGO BAY                 71              1014.0F
IMPERIAL BEACH             67 68                N/A
POINT LOMA SOUTH              71                N/A           2/220/11

$$



 

View Past Reports for San Diego, CA.

Products Courtesy of NOAA-NWS
NWS Information Parsing Script by Ken True at Saratoga Weather - Script by SE Lincoln Weather.